Location: Lynch Observatory
(39.9540°N, 75.1861°W)
Time: 11:23:53
(UTC-04:00)

CAS-4B - Pass Details

Date: 23 April 2024
Orbit: 474 x 492 km, 43.0° (Epoch: 26 May)

Event Time Altitude Azimuth Distance (km) Brightness Sun altitude
Exits shadow 05:19:03 - 287° (WNW) 1,899 ? -10.0°
Reaches altitude 10° 05:19:38 10° 288° (WNW) 1,666 ? -9.9°
Maximum altitude 05:23:23 57° 8° (N) 576 ? -9.3°
Drops below altitude 10° 05:27:09 10° 88° (E) 1,679 ? -8.6°
Sets 05:29:23 0° 93° (E) 2,563 ? -8.2°
